STARLINK-2468

Last updated on Sat May 08 2021 00:02:04 GMT+0000 (Coordinated Universal Time)

1 48127U 21027AM 21127.58334491 -.00058417 00000-0 -41361-3 0 9999 2 48127 53.0470 191.7366 0002380 30.4168 277.1088 15.73252408 1776

Satellite not in orbit